ProjectID,Date,Electric Generation,Electric Utility Import,Facility Electric Load
,YYYY-MM-DD,kW,kW,kW
261,2014-08-01,163.64374999999998,,163.64374999999998
261,2014-08-02,94.69608333333333,,94.69608333333333
261,2014-08-03,39.385,,39.385
261,2014-08-04,131.73379166666666,,131.73379166666666
261,2014-08-05,221.20679166666665,,221.20679166666665
261,2014-08-06,246.207125,,246.207125
261,2014-08-07,219.449625,,219.449625
261,2014-08-08,225.75270833333332,,225.75270833333332
261,2014-08-09,186.3312083333333,,186.3312083333333
261,2014-08-10,98.48083333333334,,98.48083333333334
261,2014-08-11,93.31229166666667,,93.31229166666667
261,2014-08-12,93.99733333333334,,93.99733333333334
261,2014-08-13,93.74912499999999,,93.74912499999999
261,2014-08-14,184.92916666666667,,184.92916666666667
261,2014-08-15,178.3395416666667,,178.3395416666667
261,2014-08-16,170.409625,,170.409625
261,2014-08-17,89.60383333333334,,89.60383333333334
261,2014-08-18,26.161291666666667,,26.161291666666667
261,2014-08-19,0.0,,0.0
261,2014-08-20,0.0,,0.0
261,2014-08-21,0.0,,0.0
261,2014-08-22,53.5435,,53.5435
261,2014-08-23,0.0,,0.0
261,2014-08-24,0.0,,0.0
261,2014-08-25,134.51829166666667,,134.51829166666667
261,2014-08-26,184.79829166666664,,184.79829166666664
261,2014-08-27,181.80075,,181.80075
261,2014-08-28,176.30754166666668,,176.30754166666668
261,2014-08-29,162.35570833333333,,162.35570833333333
261,2014-08-30,180.55533333333335,,180.55533333333335
261,2014-08-31,163.25579166666668,,163.25579166666668
261,2014-09-01,144.02129166666666,,144.02129166666666
261,2014-09-02,128.76870833333334,,128.76870833333334
261,2014-09-03,164.40441666666666,,164.40441666666666
261,2014-09-04,173.95337500000002,,173.95337500000002
261,2014-09-05,170.56558333333334,,170.56558333333334
261,2014-09-06,169.14529166666668,,169.14529166666668
261,2014-09-07,170.166125,,170.166125
261,2014-09-08,168.73733333333334,,168.73733333333334
261,2014-09-09,161.09591666666668,,161.09591666666668
261,2014-09-10,155.677875,,155.677875
261,2014-09-11,163.163875,,163.163875
261,2014-09-12,104.13641666666666,,104.13641666666666
261,2014-09-13,128.22183333333334,,128.22183333333334
261,2014-09-14,144.06629166666667,,144.06629166666667
261,2014-09-15,130.2725,,130.2725
261,2014-09-16,135.17520833333333,,135.17520833333333
261,2014-09-17,98.18833333333333,,98.18833333333333
261,2014-09-18,123.815875,,123.815875
261,2014-09-19,129.90445833333334,,129.90445833333334
261,2014-09-20,60.02975,,60.02975
261,2014-09-21,63.817499999999995,,63.817499999999995
261,2014-09-22,130.340375,,130.340375
261,2014-09-23,42.063875,,42.063875
261,2014-09-24,32.96841666666666,,32.96841666666666
261,2014-09-25,53.301208333333335,,53.301208333333335
261,2014-09-26,63.86145833333333,,63.86145833333333
261,2014-09-27,61.272625,,61.272625
261,2014-09-28,59.810291666666664,,59.810291666666664
261,2014-09-29,57.456291666666665,,57.456291666666665
261,2014-09-30,56.46279166666667,,56.46279166666667
261,2014-10-01,57.01345833333334,,57.01345833333334
261,2014-10-02,8.822958333333334,,8.822958333333334
261,2014-10-03,113.27445833333333,,113.27445833333333
261,2014-10-04,181.77120833333333,,181.77120833333333
261,2014-10-05,187.17325000000002,,187.17325000000002
261,2014-10-06,128.40741666666665,,128.40741666666665
261,2014-10-07,149.8455,,149.8455
261,2014-10-08,162.743875,,162.743875
261,2014-10-09,155.50845833333332,,155.50845833333332
261,2014-10-10,162.89891666666668,,162.89891666666668
261,2014-10-11,242.9095,,242.9095
261,2014-10-12,211.92487500000001,,211.92487500000001
261,2014-10-13,180.10970833333332,,180.10970833333332
261,2014-10-14,165.23216666666667,,165.23216666666667
261,2014-10-15,173.98524999999998,,173.98524999999998
261,2014-10-16,172.33529166666665,,172.33529166666665
261,2014-10-17,164.02041666666665,,164.02041666666665
261,2014-10-18,169.64404166666665,,169.64404166666665
261,2014-10-19,187.178125,,187.178125
261,2014-10-20,185.94187499999998,,185.94187499999998
261,2014-10-21,173.86983333333333,,173.86983333333333
261,2014-10-22,254.65625,,254.65625
261,2014-10-23,192.14537499999997,,192.14537499999997
261,2014-10-24,187.5495,,187.5495
261,2014-10-25,179.14316666666664,,179.14316666666664
261,2014-10-26,180.3250833333333,,180.3250833333333
261,2014-10-27,56.31845833333333,,56.31845833333333
261,2014-10-28,74.31929166666667,,74.31929166666667
261,2014-10-29,98.36395833333334,,98.36395833333334
261,2014-10-30,193.50183333333334,,193.50183333333334
261,2014-10-31,275.93458333333336,,275.93458333333336
261,2014-11-01,276.83279166666665,,276.83279166666665
261,2014-11-02,280.70233333333334,,280.70233333333334
261,2014-11-03,279.43204166666663,,279.43204166666663
261,2014-11-04,250.786375,,250.786375
261,2014-11-05,250.93791666666667,,250.93791666666667
261,2014-11-06,276.540375,,276.540375
261,2014-11-07,200.32304166666665,,200.32304166666665
261,2014-11-08,0.0,,0.0
261,2014-11-09,245.43275000000003,,245.43275000000003
261,2014-11-10,274.8589583333333,,274.8589583333333
261,2014-11-11,250.2515,,250.2515
261,2014-11-12,238.29958333333332,,238.29958333333332
261,2014-11-13,279.77204166666667,,279.77204166666667
261,2014-11-14,198.22850000000003,,198.22850000000003
261,2014-11-15,0.0,,0.0
261,2014-11-16,0.0,,0.0
261,2014-11-17,0.0,,0.0
261,2014-11-18,231.09141666666667,,231.09141666666667
261,2014-11-19,250.31545833333334,,250.31545833333334
261,2014-11-20,72.00987500000001,,72.00987500000001
261,2014-11-21,0.0,,0.0
261,2014-11-22,160.410125,,160.410125
261,2014-11-23,173.992375,,173.992375
261,2014-11-24,184.8228333333333,,184.8228333333333
261,2014-11-25,109.34125,,109.34125
261,2014-11-26,0.0,,0.0
261,2014-11-27,177.40970833333333,,177.40970833333333
261,2014-11-28,87.07937500000001,,87.07937500000001
261,2014-11-29,94.45299999999999,,94.45299999999999
261,2014-11-30,93.61574999999999,,93.61574999999999
261,2014-12-01,93.65416666666665,,93.65416666666665
261,2014-12-02,94.43779166666667,,94.43779166666667
261,2014-12-03,38.295375,,38.295375
261,2014-12-04,76.01350000000001,,76.01350000000001
261,2014-12-05,0.0,,0.0
261,2014-12-06,0.0,,0.0
261,2014-12-07,0.0,,0.0
261,2014-12-08,0.0,,0.0
261,2014-12-09,190.22608333333335,,190.22608333333335
261,2014-12-10,276.008,,276.008
261,2014-12-11,257.28066666666666,,257.28066666666666
261,2014-12-12,262.7549166666667,,262.7549166666667
261,2014-12-13,191.08283333333335,,191.08283333333335
261,2014-12-14,191.20054166666668,,191.20054166666668
261,2014-12-15,267.67445833333335,,267.67445833333335
261,2014-12-16,262.04587499999997,,262.04587499999997
261,2014-12-17,260.9139166666667,,260.9139166666667
261,2014-12-18,252.62341666666669,,252.62341666666669
261,2014-12-19,263.146125,,263.146125
261,2014-12-20,191.24883333333332,,191.24883333333332
261,2014-12-21,259.255625,,259.255625
261,2014-12-22,246.17816666666667,,246.17816666666667
261,2014-12-23,233.67095833333335,,233.67095833333335
261,2014-12-24,196.449125,,196.449125
261,2014-12-25,0.0,,0.0
261,2014-12-26,0.0,,0.0
261,2014-12-27,0.0,,0.0
261,2014-12-28,0.0,,0.0
261,2014-12-29,0.0,,0.0
261,2014-12-30,0.0,,0.0
261,2014-12-31,183.16245833333335,,183.16245833333335
261,2015-01-01,236.99862499999998,,236.99862499999998
261,2015-01-02,260.55354166666666,,260.55354166666666
261,2015-01-03,188.78408333333334,,188.78408333333334
261,2015-01-04,185.18316666666666,,185.18316666666666
261,2015-01-05,259.39341666666667,,259.39341666666667
261,2015-01-06,259.47525,,259.47525
261,2015-01-07,187.5487916666667,,187.5487916666667
261,2015-01-08,189.0247916666667,,189.0247916666667
261,2015-01-09,187.20154166666669,,187.20154166666669
261,2015-01-10,191.25545833333334,,191.25545833333334
261,2015-01-11,190.47329166666668,,190.47329166666668
261,2015-01-12,188.14579166666667,,188.14579166666667
261,2015-01-13,235.36258333333333,,235.36258333333333
261,2015-01-14,189.33604166666666,,189.33604166666666
261,2015-01-15,256.1059583333333,,256.1059583333333
261,2015-01-16,239.6916666666667,,239.6916666666667
261,2015-01-17,194.80616666666666,,194.80616666666666
261,2015-01-18,189.55895833333332,,189.55895833333332
261,2015-01-19,184.49133333333336,,184.49133333333336
261,2015-01-20,190.66795833333333,,190.66795833333333
261,2015-01-21,226.18499999999997,,226.18499999999997
261,2015-01-22,226.05141666666668,,226.05141666666668
261,2015-01-23,226.30708333333334,,226.30708333333334
261,2015-01-24,225.77345833333334,,225.77345833333334
261,2015-01-25,226.28554166666666,,226.28554166666666
261,2015-01-26,233.77866666666668,,233.77866666666668
261,2015-01-27,180.27754166666668,,180.27754166666668
261,2015-01-28,151.21875,,151.21875
261,2015-01-29,194.78549999999998,,194.78549999999998
261,2015-01-30,184.17550000000003,,184.17550000000003
261,2015-01-31,188.80504166666665,,188.80504166666665
261,2015-02-01,188.29670833333333,,188.29670833333333
261,2015-02-02,188.10925,,188.10925
261,2015-02-03,218.1445,,218.1445
261,2015-02-04,257.7495833333333,,257.7495833333333
261,2015-02-05,260.78795833333334,,260.78795833333334
261,2015-02-06,264.393375,,264.393375
261,2015-02-07,259.405125,,259.405125
261,2015-02-08,230.9085,,230.9085
261,2015-02-09,187.98520833333336,,187.98520833333336
261,2015-02-10,188.078,,188.078
261,2015-02-11,245.3083333333333,,245.3083333333333
261,2015-02-12,187.53883333333332,,187.53883333333332
261,2015-02-13,137.710375,,137.710375
261,2015-02-14,90.942625,,90.942625
261,2015-02-15,92.19195833333333,,92.19195833333333
261,2015-02-16,93.90966666666667,,93.90966666666667
261,2015-02-17,79.123875,,79.123875
261,2015-02-18,0.0,,0.0
261,2015-02-19,0.0,,0.0
261,2015-02-20,0.0,,0.0
261,2015-02-21,0.0,,0.0
261,2015-02-22,0.0,,0.0
261,2015-02-23,0.0,,0.0
261,2015-02-24,0.0,,0.0
261,2015-02-25,0.0,,0.0
261,2015-02-26,0.0,,0.0
261,2015-02-27,0.0,,0.0
261,2015-02-28,0.0,,0.0
261,2015-03-01,46.46520833333333,,46.46520833333333
261,2015-03-02,94.01629166666667,,94.01629166666667
261,2015-03-03,93.52850000000001,,93.52850000000001
261,2015-03-04,93.51783333333333,,93.51783333333333
261,2015-03-05,93.95400000000001,,93.95400000000001
261,2015-03-06,94.53779166666668,,94.53779166666668
261,2015-03-07,86.68120833333334,,86.68120833333334
261,2015-03-08,132.48654166666668,,132.48654166666668
261,2015-03-09,114.33795833333333,,114.33795833333333
261,2015-03-10,93.58558333333333,,93.58558333333333
261,2015-03-11,93.32233333333333,,93.32233333333333
261,2015-03-12,93.94716666666666,,93.94716666666666
261,2015-03-13,94.19012500000001,,94.19012500000001
261,2015-03-14,92.04924999999999,,92.04924999999999
261,2015-03-15,92.61820833333333,,92.61820833333333
261,2015-03-16,91.14925,,91.14925
261,2015-03-17,93.25466666666667,,93.25466666666667
261,2015-03-18,94.02862499999999,,94.02862499999999
261,2015-03-19,93.94712500000001,,93.94712500000001
261,2015-03-20,94.251375,,94.251375
261,2015-03-21,93.71441666666668,,93.71441666666668
261,2015-03-22,94.13633333333333,,94.13633333333333
261,2015-03-23,92.95804166666666,,92.95804166666666
261,2015-03-24,120.422125,,120.422125
261,2015-03-25,262.45295833333336,,262.45295833333336
261,2015-03-26,269.8859166666667,,269.8859166666667
261,2015-03-27,271.38304166666666,,271.38304166666666
261,2015-03-28,274.8995,,274.8995
261,2015-03-29,274.9495416666667,,274.9495416666667
261,2015-03-30,271.35983333333337,,271.35983333333337
261,2015-03-31,271.5699583333333,,271.5699583333333
261,2015-04-01,271.867375,,271.867375
261,2015-04-02,268.123,,268.123
261,2015-04-03,259.672125,,259.672125
261,2015-04-04,265.337875,,265.337875
261,2015-04-05,265.4522083333333,,265.4522083333333
261,2015-04-06,263.28045833333334,,263.28045833333334
261,2015-04-07,265.39208333333335,,265.39208333333335
261,2015-04-08,268.6920833333333,,268.6920833333333
261,2015-04-09,267.70095833333335,,267.70095833333335
261,2015-04-10,261.4817083333333,,261.4817083333333
261,2015-04-11,263.125625,,263.125625
261,2015-04-12,260.42475,,260.42475
261,2015-04-13,258.55379166666665,,258.55379166666665
261,2015-04-14,253.3885,,253.3885
261,2015-04-15,237.25825,,237.25825
261,2015-04-16,256.28933333333333,,256.28933333333333
261,2015-04-17,227.08208333333334,,227.08208333333334
261,2015-04-18,190.45329166666667,,190.45329166666667
261,2015-04-19,255.02945833333334,,255.02945833333334
261,2015-04-20,259.67091666666664,,259.67091666666664
261,2015-04-21,236.9980833333333,,236.9980833333333
261,2015-04-22,170.53579166666665,,170.53579166666665
261,2015-04-23,187.54029166666666,,187.54029166666666
261,2015-04-24,187.40891666666667,,187.40891666666667
261,2015-04-25,186.56941666666668,,186.56941666666668
261,2015-04-26,185.98383333333334,,185.98383333333334
261,2015-04-27,186.77520833333332,,186.77520833333332
261,2015-04-28,171.81941666666668,,171.81941666666668
261,2015-04-29,164.07120833333332,,164.07120833333332
261,2015-04-30,174.16625,,174.16625
261,2015-05-01,191.095875,,191.095875
261,2015-05-02,181.1364583333333,,181.1364583333333
261,2015-05-03,92.34395833333333,,92.34395833333333
261,2015-05-04,92.72725000000001,,92.72725000000001
261,2015-05-05,27.13383333333333,,27.13383333333333
261,2015-05-06,0.0,,0.0
261,2015-05-07,0.0,,0.0
261,2015-05-08,0.0,,0.0
261,2015-05-09,58.917458333333336,,58.917458333333336
261,2015-05-10,136.3375,,136.3375
261,2015-05-11,156.90533333333335,,156.90533333333335
261,2015-05-12,156.90395833333335,,156.90395833333335
261,2015-05-13,130.59379166666668,,130.59379166666668
261,2015-05-14,128.41779166666666,,128.41779166666666
261,2015-05-15,127.63729166666667,,127.63729166666667
261,2015-05-16,139.92670833333332,,139.92670833333332
261,2015-05-17,163.54558333333333,,163.54558333333333
261,2015-05-18,139.25841666666668,,139.25841666666668
261,2015-05-19,138.21645833333335,,138.21645833333335
261,2015-05-20,123.45033333333333,,123.45033333333333
261,2015-05-21,133.26354166666667,,133.26354166666667
261,2015-05-22,124.56604166666666,,124.56604166666666
261,2015-05-23,136.306625,,136.306625
261,2015-05-24,131.78416666666666,,131.78416666666666
261,2015-05-25,153.83058333333335,,153.83058333333335
261,2015-05-26,161.58158333333333,,161.58158333333333
261,2015-05-27,162.31304166666666,,162.31304166666666
261,2015-05-28,166.936625,,166.936625
261,2015-05-29,167.54416666666665,,167.54416666666665
261,2015-05-30,167.67425,,167.67425
261,2015-05-31,167.07129166666667,,167.07129166666667
261,2015-06-01,141.016,,141.016
261,2015-06-02,120.41279166666668,,120.41279166666668
261,2015-06-03,123.60145833333333,,123.60145833333333
261,2015-06-04,117.74766666666666,,117.74766666666666
261,2015-06-05,122.80183333333333,,122.80183333333333
261,2015-06-06,133.96783333333335,,133.96783333333335
261,2015-06-07,131.01825,,131.01825
261,2015-06-08,141.692375,,141.692375
261,2015-06-09,156.37029166666667,,156.37029166666667
261,2015-06-10,161.91554166666666,,161.91554166666666
261,2015-06-11,163.61175,,163.61175
261,2015-06-12,161.9855,,161.9855
261,2015-06-13,161.97925,,161.97925
261,2015-06-14,166.23525,,166.23525
261,2015-06-15,167.66979166666667,,167.66979166666667
261,2015-06-16,167.21595833333333,,167.21595833333333
261,2015-06-17,167.29108333333332,,167.29108333333332
261,2015-06-18,153.46366666666668,,153.46366666666668
261,2015-06-19,162.68541666666667,,162.68541666666667
261,2015-06-20,169.53091666666668,,169.53091666666668
261,2015-06-21,167.16354166666667,,167.16354166666667
261,2015-06-22,167.47533333333334,,167.47533333333334
261,2015-06-23,168.015625,,168.015625
261,2015-06-24,169.41308333333333,,169.41308333333333
261,2015-06-25,170.9656666666667,,170.9656666666667
261,2015-06-26,171.15470833333333,,171.15470833333333
261,2015-06-27,167.998875,,167.998875
261,2015-06-28,159.88183333333333,,159.88183333333333
261,2015-06-29,164.81833333333333,,164.81833333333333
261,2015-06-30,170.64370833333334,,170.64370833333334
261,2015-07-01,168.46641666666667,,168.46641666666667
261,2015-07-02,168.10520833333334,,168.10520833333334
261,2015-07-03,168.548125,,168.548125
261,2015-07-04,168.24158333333332,,168.24158333333332
261,2015-07-05,167.72608333333332,,167.72608333333332
261,2015-07-06,167.882,,167.882
261,2015-07-07,166.52941666666666,,166.52941666666666
261,2015-07-08,166.50704166666665,,166.50704166666665
261,2015-07-09,170.024375,,170.024375
261,2015-07-10,168.63904166666666,,168.63904166666666
261,2015-07-11,168.61845833333334,,168.61845833333334
261,2015-07-12,167.43445833333334,,167.43445833333334
261,2015-07-13,168.56416666666667,,168.56416666666667
261,2015-07-14,46.44883333333333,,46.44883333333333
261,2015-07-15,141.67708333333334,,141.67708333333334
261,2015-07-16,177.25704166666665,,177.25704166666665
261,2015-07-17,178.72508333333334,,178.72508333333334
261,2015-07-18,177.005625,,177.005625
261,2015-07-19,173.65875000000003,,173.65875000000003
261,2015-07-20,171.13233333333335,,171.13233333333335
261,2015-07-21,173.928125,,173.928125
261,2015-07-22,176.251,,176.251
261,2015-07-23,176.48958333333334,,176.48958333333334
261,2015-07-24,184.790875,,184.790875
261,2015-07-25,180.906375,,180.906375
261,2015-07-26,179.2290833333333,,179.2290833333333
261,2015-07-27,179.66054166666666,,179.66054166666666
261,2015-07-28,177.62454166666666,,177.62454166666666
261,2015-07-29,175.94616666666664,,175.94616666666664
261,2015-07-30,176.20375,,176.20375
261,2015-07-31,177.87070833333334,,177.87070833333334
261,2015-08-01,177.139375,,177.139375
261,2015-08-02,177.02408333333335,,177.02408333333335
261,2015-08-03,176.49983333333333,,176.49983333333333
261,2015-08-04,176.09320833333334,,176.09320833333334
261,2015-08-05,178.115,,178.115
261,2015-08-06,179.48166666666668,,179.48166666666668
261,2015-08-07,179.63362500000002,,179.63362500000002
261,2015-08-08,180.01795833333333,,180.01795833333333
261,2015-08-09,179.68425,,179.68425
261,2015-08-10,181.22925,,181.22925
261,2015-08-11,180.722125,,180.722125
261,2015-08-12,180.10320833333333,,180.10320833333333
261,2015-08-13,180.04683333333332,,180.04683333333332
261,2015-08-14,81.96758333333334,,81.96758333333334
261,2015-08-15,0.0,,0.0
261,2015-08-16,0.0,,0.0
261,2015-08-17,0.0,,0.0
261,2015-08-18,0.0,,0.0
261,2015-08-19,0.0,,0.0
261,2015-08-20,0.0,,0.0
261,2015-08-21,0.0,,0.0
261,2015-08-22,0.0,,0.0
261,2015-08-23,0.0,,0.0
261,2015-08-24,56.04095833333333,,56.04095833333333
261,2015-08-25,1.9794166666666666,,1.9794166666666666
261,2015-08-26,0.0,,0.0
261,2015-08-27,0.0,,0.0
261,2015-08-28,0.0,,0.0
261,2015-08-29,0.0,,0.0
261,2015-08-30,0.0,,0.0
261,2015-08-31,0.0,,0.0
261,2015-09-01,0.0,,0.0
261,2015-09-02,0.0,,0.0
261,2015-09-03,0.0,,0.0
261,2015-09-04,66.947125,,66.947125
261,2015-09-05,94.81270833333333,,94.81270833333333
261,2015-09-06,94.19245833333333,,94.19245833333333
261,2015-09-07,77.08175,,77.08175
261,2015-09-08,41.50525,,41.50525
261,2015-09-09,53.80554166666667,,53.80554166666667
261,2015-09-10,67.46966666666667,,67.46966666666667
261,2015-09-11,85.26966666666667,,85.26966666666667
261,2015-09-12,139.19304166666666,,139.19304166666666
261,2015-09-13,189.8947916666667,,189.8947916666667
261,2015-09-14,164.46370833333333,,164.46370833333333
261,2015-09-15,173.61779166666668,,173.61779166666668
261,2015-09-16,180.64874999999998,,180.64874999999998
261,2015-09-17,190.75866666666664,,190.75866666666664
261,2015-09-18,194.45675000000003,,194.45675000000003
261,2015-09-19,198.03875000000002,,198.03875000000002
261,2015-09-20,154.85570833333333,,154.85570833333333
261,2015-09-21,149.59,,149.59
261,2015-09-22,94.83020833333335,,94.83020833333335
261,2015-09-23,144.894125,,144.894125
261,2015-09-24,163.19208333333333,,163.19208333333333
261,2015-09-25,158.216875,,158.216875
261,2015-09-26,144.14666666666668,,144.14666666666668
261,2015-09-27,143.98583333333332,,143.98583333333332
261,2015-09-28,159.694125,,159.694125
261,2015-09-29,185.96241666666666,,185.96241666666666
261,2015-09-30,172.53741666666667,,172.53741666666667
261,2015-10-01,134.09366666666668,,134.09366666666668
261,2015-10-02,184.17570833333332,,184.17570833333332
261,2015-10-03,212.07420833333333,,212.07420833333333
261,2015-10-04,207.33970833333333,,207.33970833333333
261,2015-10-05,181.48195833333332,,181.48195833333332
261,2015-10-06,151.48008333333334,,151.48008333333334
261,2015-10-07,144.24916666666667,,144.24916666666667
261,2015-10-08,139.79320833333333,,139.79320833333333
261,2015-10-09,141.46320833333334,,141.46320833333334
261,2015-10-10,141.00050000000002,,141.00050000000002
261,2015-10-11,143.206625,,143.206625
261,2015-10-12,145.68554166666667,,145.68554166666667
261,2015-10-13,138.75566666666666,,138.75566666666666
261,2015-10-14,138.98375000000001,,138.98375000000001
261,2015-10-15,143.82512499999999,,143.82512499999999
261,2015-10-16,147.55754166666665,,147.55754166666665
261,2015-10-17,0.0,,0.0
261,2015-10-18,0.0,,0.0
261,2015-10-19,0.0,,0.0
261,2015-10-20,0.0,,0.0
261,2015-10-21,0.0,,0.0
261,2015-10-22,0.0,,0.0
261,2015-10-23,0.0,,0.0
261,2015-10-24,0.0,,0.0
261,2015-10-25,0.0,,0.0
261,2015-10-26,0.0,,0.0
261,2015-10-27,0.0,,0.0
261,2015-10-28,0.0,,0.0
261,2015-10-29,0.0,,0.0
261,2015-10-30,0.0,,0.0
261,2015-10-31,0.0,,0.0
261,2015-11-01,0.0,,0.0
261,2015-11-02,0.0,,0.0
261,2015-11-03,0.0,,0.0
261,2015-11-04,0.0,,0.0
261,2015-11-05,0.0,,0.0
261,2015-11-06,0.0,,0.0
261,2015-11-07,0.0,,0.0
261,2015-11-08,0.0,,0.0
261,2015-11-09,0.0,,0.0
261,2015-11-10,0.0,,0.0
261,2015-11-11,0.0,,0.0
261,2015-11-12,34.086666666666666,,34.086666666666666
261,2015-11-13,207.536875,,207.536875
261,2015-11-14,223.84345833333336,,223.84345833333336
261,2015-11-15,189.70366666666666,,189.70366666666666
261,2015-11-16,177.19449999999998,,177.19449999999998
261,2015-11-17,147.03825,,147.03825
261,2015-11-18,183.694,,183.694
261,2015-11-19,179.88966666666667,,179.88966666666667
261,2015-11-20,181.66391666666667,,181.66391666666667
261,2015-11-21,182.19050000000001,,182.19050000000001
261,2015-11-22,181.06916666666666,,181.06916666666666
261,2015-11-23,167.72383333333332,,167.72383333333332
261,2015-11-24,188.977625,,188.977625
261,2015-11-25,172.60670833333333,,172.60670833333333
261,2015-11-26,182.58358333333334,,182.58358333333334
261,2015-11-27,183.27254166666668,,183.27254166666668
261,2015-11-28,180.4344583333333,,180.4344583333333
261,2015-11-29,184.06004166666665,,184.06004166666665
261,2015-11-30,147.4305,,147.4305
261,2015-12-01,182.52824999999999,,182.52824999999999
261,2015-12-02,180.946375,,180.946375
261,2015-12-03,182.63904166666669,,182.63904166666669
261,2015-12-04,185.92008333333334,,185.92008333333334
261,2015-12-05,186.96529166666667,,186.96529166666667
261,2015-12-06,185.35245833333332,,185.35245833333332
261,2015-12-07,181.87183333333334,,181.87183333333334
261,2015-12-08,187.73820833333332,,187.73820833333332
261,2015-12-09,215.6885,,215.6885
261,2015-12-10,211.649125,,211.649125
261,2015-12-11,208.57725000000002,,208.57725000000002
261,2015-12-12,201.34370833333332,,201.34370833333332
261,2015-12-13,193.40187500000002,,193.40187500000002
261,2015-12-14,197.28033333333335,,197.28033333333335
261,2015-12-15,180.75466666666668,,180.75466666666668
261,2015-12-16,215.48237500000002,,215.48237500000002
261,2015-12-17,208.66641666666666,,208.66641666666666
261,2015-12-18,202.15220833333333,,202.15220833333333
261,2015-12-19,202.25125,,202.25125
261,2015-12-20,191.91454166666665,,191.91454166666665
261,2015-12-21,187.49258333333333,,187.49258333333333
261,2015-12-22,184.91304166666666,,184.91304166666666
261,2015-12-23,183.92133333333334,,183.92133333333334
261,2015-12-24,176.78391666666667,,176.78391666666667
261,2015-12-25,177.48904166666668,,177.48904166666668
261,2015-12-26,185.41629166666667,,185.41629166666667